Вернуться в каталог

FREGAT DEB

LostUNKNOWN
NORAD 45950·DEBRIS·🇷🇺 Russia

Запущен Jul 18, 2011 с Baikonur Cosmodrome

Loading…

Ближайшие Пролёты (ближайшие 24 часа)

TLE

УстаревшееSource: Space-Track

Эпоха: Sep 2, 2021, 01:34 UTC

1 45950U 11037FF  21245.06575954  .00076187  00000-0  70677-1 0  9997
2 45950  51.4710 272.7569 2397569 287.0170  48.3154  9.93111574    13

Отслеживайте FREGAT DEB в реальном времени с AllMySat

Download on the App Store